Zurück zum Katalog

SL-14 DEB

AktivPO
NORAD 47085·DEBRIS·🇷🇺 Russia

Gestartet Aug 15, 1991 von Plesetsk Cosmodrome

Loading…

Nächste Überflüge (nächste 24 Stunden)

TLE

AktuellSource: Space-Track

Epoche: Sep 14, 2026, 02:19 UTC

1 47085U 91056DK  26257.09674046 -.00000071  00000-0 -16318-3 0  9995
2 47085  82.5610  28.3282 0082797  33.7523 326.8842 13.35166584285593

Verfolge SL-14 DEB in Echtzeit mit AllMySat

Download on the App Store